Total_Precipitation_Accumulation
0.65 0.53 0.71 0.76 0.75 0.87 1.25 1.29 1.23 0.73 0.47 0.42 0.43 0.48 0.46 0.41 0.36 0.35 0.39 0.40 0.40 0.42 0.45 0.43 0.42 0.45 0.44 0.47 0.51 0.49 0.54 0.58 0.60 0.65 0.68 0.72 0.74 0.78 0.84 0.87 0.90 0.92 0.94 0.95
0.71 0.45 0.54 0.63 0.62 0.65 0.77 0.84 0.85 0.63 0.59 0.49 0.46 0.43 0.41 0.39 0.35 0.35 0.36 0.39 0.38 0.35 0.39 0.39 0.42 0.45 0.47 0.47 0.49 0.51 0.51 0.52 0.56 0.60 0.62 0.67 0.73 0.75 0.77 0.83 0.89 0.94 1.00 1.04
0.88 0.50 0.63 0.79 0.72 0.71 0.73 0.73 0.74 0.77 0.70 0.56 0.51 0.47 0.45 0.42 0.38 0.37 0.33 0.32 0.33 0.33 0.35 0.36 0.38 0.41 0.44 0.46 0.47 0.50 0.53 0.52 0.54 0.58 0.61 0.64 0.71 0.79 0.86 0.90 0.99 1.06 1.10 1.19
1.03 0.72 0.92 0.75 0.58 0.60 0.63 0.66 0.70 0.68 0.58 0.53 0.50 0.48 0.46 0.42 0.37 0.34 0.31 0.29 0.27 0.28 0.27 0.28 0.30 0.33 0.38 0.41 0.45 0.48 0.53 0.58 0.60 0.61 0.67 0.73 0.77 0.84 0.93 1.01 1.09 1.17 1.16 1.17
1.18 0.90 0.63 0.43 0.40 0.54 0.63 0.67 0.64 0.52 0.42 0.40 0.39 0.40 0.41 0.37 0.32 0.31 0.30 0.32 0.30 0.29 0.28 0.28 0.30 0.33 0.39 0.44 0.46 0.46 0.51 0.58 0.63 0.65 0.74 0.81 0.82 0.87 0.94 0.99 1.05 1.09 1.10 1.06
1.24 1.06 0.61 0.43 0.27 0.30 0.48 0.72 0.52 0.44 0.43 0.42 0.42 0.49 0.44 0.34 0.31 0.31 0.29 0.29 0.33 0.34 0.31 0.33 0.35 0.37 0.43 0.51 0.59 0.61 0.60 0.64 0.71 0.79 0.88 0.91 0.88 0.88 0.87 0.88 0.89 0.86 0.84 0.81
1.04 0.99 0.54 0.38 0.24 0.25 0.65 0.79 0.42 0.40 0.43 0.45 0.49 0.50 0.42 0.32 0.29 0.32 0.34 0.32 0.33 0.37 0.38 0.41 0.43 0.44 0.46 0.51 0.65 0.72 0.74 0.75 0.77 0.84 0.88 0.90 0.86 0.82 0.79 0.75 0.75 0.72 0.69 0.67
0.79 1.02 0.76 0.40 0.31 0.57 0.72 0.44 0.37 0.38 0.42 0.45 0.44 0.36 0.31 0.32 0.31 0.30 0.31 0.31 0.35 0.41 0.45 0.45 0.50 0.56 0.56 0.58 0.65 0.71 0.75 0.76 0.75 0.75 0.76 0.80 0.81 0.78 0.74 0.73 0.72 0.70 0.69 0.70
0.71 0.80 0.69 0.53 0.56 0.58 0.48 0.42 0.37 0.38 0.40 0.40 0.39 0.37 0.32 0.29 0.29 0.31 0.33 0.33 0.38 0.46 0.51 0.53 0.53 0.58 0.62 0.59 0.58 0.62 0.67 0.70 0.68 0.65 0.64 0.65 0.69 0.72 0.73 0.72 0.71 0.71 0.71 0.71
0.59 0.61 0.52 0.48 0.43 0.39 0.38 0.41 0.37 0.35 0.36 0.39 0.40 0.37 0.34 0.31 0.31 0.29 0.30 0.33 0.36 0.41 0.46 0.48 0.49 0.51 0.54 0.50 0.48 0.50 0.54 0.59 0.62 0.60 0.58 0.57 0.57 0.64 0.68 0.70 0.68 0.67 0.68 0.70
0.53 0.48 0.39 0.38 0.38 0.38 0.35 0.32 0.29 0.27 0.28 0.33 0.35 0.34 0.34 0.35 0.33 0.32 0.32 0.33 0.35 0.38 0.43 0.46 0.45 0.46 0.46 0.45 0.44 0.46 0.47 0.50 0.53 0.57 0.59 0.60 0.60 0.64 0.69 0.70 0.76 0.75 0.68 0.66
0.59 0.47 0.47 0.47 0.40 0.36 0.34 0.33 0.31 0.29 0.27 0.27 0.29 0.33 0.31 0.32 0.32 0.32 0.36 0.35 0.35 0.36 0.40 0.46 0.46 0.45 0.45 0.43 0.44 0.47 0.49 0.49 0.51 0.57 0.60 0.61 0.61 0.64 0.71 0.74 0.79 0.79 0.77 0.73
0.44 0.35 0.33 0.32 0.27 0.27 0.30 0.31 0.29 0.30 0.31 0.32 0.32 0.32 0.33 0.33 0.33 0.35 0.38 0.37 0.37 0.37 0.37 0.40 0.44 0.46 0.45 0.46 0.47 0.48 0.52 0.53 0.53 0.56 0.61 0.61 0.60 0.61 0.64 0.67 0.73 0.74 0.74 0.75
0.22 0.21 0.22 0.21 0.23 0.22 0.24 0.26 0.25 0.25 0.27 0.32 0.34 0.33 0.33 0.35 0.36 0.39 0.43 0.43 0.40 0.37 0.36 0.36 0.38 0.44 0.45 0.45 0.46 0.49 0.51 0.55 0.57 0.57 0.61 0.62 0.59 0.59 0.59 0.61 0.61 0.61 0.65 0.72
0.13 0.18 0.24 0.22 0.18 0.18 0.20 0.20 0.20 0.21 0.23 0.25 0.25 0.28 0.32 0.37 0.41 0.45 0.48 0.46 0.40 0.37 0.36 0.35 0.35 0.38 0.41 0.45 0.45 0.46 0.49 0.51 0.53 0.56 0.60 0.64 0.63 0.59 0.59 0.60 0.60 0.58 0.58 0.66
0.15 0.14 0.15 0.15 0.16 0.16 0.16 0.19 0.22 0.24 0.24 0.25 0.27 0.31 0.35 0.38 0.38 0.39 0.43 0.46 0.44 0.42 0.39 0.35 0.36 0.38 0.39 0.42 0.44 0.44 0.46 0.53 0.55 0.55 0.56 0.59 0.62 0.62 0.61 0.62 0.61 0.59 0.56 0.59
0.22 0.21 0.20 0.21 0.19 0.19 0.19 0.21 0.25 0.27 0.26 0.29 0.35 0.36 0.35 0.34 0.33 0.35 0.39 0.41 0.41 0.42 0.42 0.42 0.42 0.38 0.38 0.40 0.42 0.44 0.46 0.49 0.54 0.54 0.55 0.57 0.58 0.60 0.60 0.62 0.63 0.62 0.59 0.64
0.24 0.25 0.26 0.28 0.27 0.25 0.23 0.22 0.23 0.25 0.27 0.29 0.30 0.31 0.33 0.35 0.37 0.39 0.40 0.37 0.33 0.32 0.34 0.38 0.38 0.36 0.36 0.39 0.43 0.44 0.45 0.46 0.46 0.48 0.52 0.57 0.61 0.59 0.61 0.62 0.62 0.61 0.60 0.64
0.20 0.20 0.20 0.22 0.24 0.24 0.24 0.24 0.24 0.25 0.25 0.25 0.27 0.30 0.31 0.33 0.35 0.35 0.33 0.32 0.32 0.34 0.35 0.33 0.36 0.34 0.35 0.38 0.42 0.43 0.46 0.47 0.48 0.49 0.53 0.61 0.63 0.59 0.61 0.62 0.62 0.60 0.61 0.62
0.15 0.17 0.19 0.21 0.21 0.22 0.24 0.24 0.24 0.24 0.25 0.25 0.25 0.25 0.27 0.30 0.32 0.32 0.29 0.30 0.36 0.41 0.39 0.36 0.33 0.31 0.33 0.36 0.42 0.42 0.46 0.48 0.50 0.52 0.55 0.58 0.59 0.58 0.59 0.62 0.62 0.61 0.60 0.60
0.16 0.17 0.20 0.22 0.22 0.23 0.24 0.24 0.23 0.24 0.23 0.22 0.24 0.26 0.28 0.30 0.31 0.31 0.31 0.31 0.32 0.33 0.33 0.33 0.30 0.31 0.33 0.38 0.43 0.43 0.46 0.49 0.51 0.53 0.54 0.56 0.58 0.58 0.58 0.58 0.60 0.60 0.60 0.59
0.18 0.19 0.21 0.23 0.25 0.25 0.24 0.23 0.23 0.23 0.21 0.20 0.21 0.21 0.22 0.24 0.25 0.26 0.28 0.33 0.35 0.34 0.31 0.28 0.29 0.34 0.40 0.45 0.43 0.42 0.45 0.48 0.50 0.51 0.53 0.55 0.58 0.58 0.58 0.59 0.62 0.61 0.61 0.61
0.19 0.21 0.21 0.23 0.25 0.26 0.25 0.24 0.23 0.23 0.22 0.22 0.24 0.26 0.27 0.28 0.29 0.31 0.32 0.29 0.29 0.31 0.29 0.27 0.32 0.37 0.42 0.41 0.38 0.40 0.43 0.46 0.48 0.51 0.53 0.55 0.58 0.61 0.62 0.61 0.61 0.61 0.62 0.62
0.20 0.21 0.21 0.21 0.21 0.20 0.20 0.20 0.21 0.22 0.23 0.23 0.24 0.26 0.29 0.29 0.27 0.26 0.30 0.31 0.31 0.31 0.28 0.28 0.33 0.36 0.38 0.35 0.35 0.39 0.43 0.46 0.49 0.51 0.53 0.55 0.57 0.58 0.60 0.61 0.61 0.59 0.57 0.57
0.20 0.19 0.19 0.19 0.20 0.20 0.20 0.19 0.18 0.18 0.18 0.18 0.19 0.20 0.23 0.27 0.31 0.29 0.27 0.28 0.28 0.29 0.27 0.28 0.32 0.34 0.34 0.33 0.36 0.40 0.44 0.47 0.53 0.56 0.57 0.57 0.55 0.55 0.56 0.58 0.60 0.59 0.57 0.55
0.18 0.18 0.18 0.18 0.19 0.20 0.20 0.20 0.20 0.18 0.19 0.19 0.17 0.17 0.19 0.21 0.23 0.24 0.25 0.25 0.25 0.27 0.27 0.28 0.30 0.32 0.33 0.34 0.38 0.41 0.44 0.47 0.50 0.51 0.51 0.53 0.54 0.55 0.54 0.55 0.55 0.56 0.55 0.53
0.16 0.16 0.16 0.16 0.14 0.15 0.18 0.20 0.22 0.21 0.22 0.24 0.24 0.20 0.20 0.21 0.22 0.23 0.23 0.24 0.24 0.25 0.25 0.27 0.28 0.30 0.32 0.34 0.37 0.38 0.40 0.43 0.45 0.47 0.49 0.51 0.54 0.55 0.54 0.54 0.55 0.54 0.54 0.53